Location: Proctor
(47.8934°N, 114.3048°W)
Time: 16:33:27
(UTC+00:00)

Courier 1B Rocket - Pass Details

Date: 20 June 2024
Orbit: 920 x 1201 km, 28.2° (Epoch: 16 July)

Event Time Altitude Azimuth Distance (km) Brightness Sun altitude
Rises 14:53:09 0° 244° (WSW) 3,931 7.7 29.4°
Reaches altitude 10° 14:58:29 10° 212° (SSW) 3,038 7.4 30.3°
Maximum altitude 15:00:30 11° 196° (SSW) 2,969 7.5 30.6°
Drops below altitude 10° 15:02:32 10° 181° (S) 3,077 7.7 31.0°
Sets 15:08:05 0° 149° (SSE) 4,075 8.6 31.9°
